SCP
0 0 0 -0 -0 -0 0 0 0 0 0 0 -0 -0 0 0 0 -0 -0 -0 0 0 0 -0 -0 -0 -0 -0 0 0 0 -0 -0 -0 -0 -0 -0 -0 -0 -0 -0 -0 -0 -0 -0 -0 -0 -0 -0
0 0 -0 0 -0 -0 0 0 0 0 0 -0 0 -0 0 0 0 -0 0 0 0 0 0 -0 -0 -0 -0 -0 0 0 0 -0 -0 -0 -0 -0 -0 -0 -0 -0 -0 -0 -0 -0 -0 -0 -0 -0 -0
0 0 0 0 0 0 0 0 -0 -0 0 0 -0 -0 0 0 0 -0 0 0 0 0 0 -0 -0 -0 -0 -0 0 0 0 0 -0 -0 -0 -0 -0 -0 -0 -0 -0 -0 -0 -0 -0 -0 -0 -0 -0
0 0 0 0 0 0 0 0 0 -0 0 -0 -0 -0 -0 0 -0 -0 -0 0 -0 -0 0 -0 -0 -0 0 0 -0 0 0 -0 -0 -0 -0 -0 -0 -0 -0 -0 -0 -0 -0 -0 -0 -0 -0 -0 -0
0 0 0 0 0 0 0 0 0 0 0 0 -0 -0 -0 -0 -0 -0 -0 0 -0 0 -0 0 0 -0 0 -0 0 0 -0 -0 -0 -0 -0 -0 -0 -0 -0 -0 -0 -0 -0 -0 -0 -0 -0 -0 -0
0 0 0 0 0 0 0 0 0 0 0 0 0 -0 -0 -0 -0 -0 0 -0 0 -0 -0 -0 -0 0 0 -0 0 0 -0 -0 -0 -0 -0 -0 -0 -0 -0 -0 -0 -0 -0 -0 -0 -0 -0 -0 0
0 0 0 0 0 0 0 0 0 0 0 0 0 -0 -0 -0 -0 -0 0 0 -0 -0 -0 -0 0 0 0 0 -0 -0 -0 -0 -0 -0 -0 -0 -0 -0 -0 -0 -0 -0 -0 -0 -0 -0 -0 -0 0
0 0 0 0 0 0 0 0 0 0 0 0 -0 0 0 -0 -0 -0 0 0 -0 -0 0 -0 -0 -0 -0 0 0 0 0 -0 -0 -0 -0 -0 -0 -0 -0 -0 -0 -0 -0 -0 -0 -0 -0 -0 -0
0 0 0 0 0 0 0 0 0 0 0 0 0 0 0 -0 -0 -0 -0 -0 -0 0 0 0 -0 -0 -0 -0 0 0 -0 -0 -0 -0 -0 -0 -0 -0 -0 -0 -0 -0 -0 -0 -0 -0 0 0 -0
0 0 0 0 0 0 0 0 0 0 0 0 0 0 -0 -0 -0 -0 -0 -0 -0 -0 0 0 -0 0 -0 -0 -0 -0 0 0 -0 -0 -0 0 -0 -0 -0 -0 -0 -0 -0 -0 -0 0 0 -0 0
0 0 0 0 0 0 0 0 0 0 0 0 0 0 -0 -0 -0 -0 -0 -0 -0 -0 -0 0 0 0 -0 -0 -0 -0 -0 -0 -0 -0 -0 -0 -0 -0 -0 -0 -0 -0 -0 -0 -0 -0 0 0 0
0 0 0 0 0 0 0 0 0 0 0 0 0 0 0 -0 -0 -0 -0 -0 -0 -0 -0 0 -0 0 -0 -0 -0 -0 -0 -0 0 -0 -0 -0 -0 -0 -0 -0 -0 -0 0 0 0 0 0 0 0
0 0 0 0 0 0 0 0 0 0 0 0 0 0 0 0 0 0 0 -0 -0 0 0 0 0 0 0 0 -0 0 0 0 0 0 0 0 0 0 0 0 0 0 0 0 0 0 0 0 0
0 0 0 0 0 0 0 0 0 0 0 0 0 0 0 0 0 0 0 0 0 0 0 0 -0 -0 0 0 0 0 0 0 0 0 0 0 0 0 0 0 0 0 0 0 0 0 0 0 0
0 0 0 0 0 0 0 0 0 -0 0 0 0 0 0 0 0 0 0 0 0 0 0 0 0 0 0 0 0 0 0 0 0 0 0 0 0 0 0 0 0 0 0 0 0 0 0 0 0
0 0 0 0 0 0 0 0 0 -0 -0 0 0 0 0 0 0 0 0 0 0 0 0 0 0 0 0 0 0 0 0 0 0 0 0 0 0 0 0 0 0 0 0 0 0 0 0 0 0
0 0 0 0 0 0 0 0 0 0 -0 -0 0 0 0 0 0 0 0 0 0 0 0 0 0 0 0 0 0 0 0 0 0 0 0 0 0 0 0 0 0 0 0 0 0 0 0 0 0
0 0 0 0 0 0 0 0 0 0 0 0 -0 0 0 0 0 0 0 0 0 0 0 0 0 0 0 0 0 0 0 0 0 0 0 0 0 0 0 0 0 0 0 0 0 0 0 0 0
0 0 0 0 0 0 0 0 0 0 0 0 0 0 0 -0 0 0 0 0 0 0 0 0 0 0 0 0 0 0 0 0 0 0 0 0 0 0 0 0 0 0 0 0 0 0 0 0 0
0 0 0 0 0 0 0 0 0 0 0 0 0 0 0 0 0 0 0 0 0 0 0 0 0 0 0 0 0 0 0 0 0 0 0 0 0 0 0 0 0 0 0 0 0 0 0 0 0
0 0 0 0 0 0 0 -0 -0 0 0 0 0 0 -0 -0 0 0 0 0 0 0 0 0 0 0 0 0 0 0 0 0 0 0 0 0 0 0 0 0 0 0 0 0 0 0 0 0 0
0 0 0 0 0 0 0 0 0 0 0 0 0 0 0 0 0 0 0 0 0 0 0 0 0 0 0 0 0 0 0 0 0 0 0 0 0 0 0 0 0 0 0 0 0 0 0 0 0
0 0 0 0 0 0 0 0 -0 0 0 0 0 0 0 0 0 0 0 0 0 0 0 0 0 0 0 0 0 0 0 0 0 0 0 0 0 0 0 0 0 0 0 0 0 0 0 0 0
0 0 0 0 0 0 0 0 0 0 0 0 0 0 0 0 0 0 0 0 0 0 0 0 0 0 0 0 0 0 0 0 0 0 0 0 0 0 0 0 0 0 0 0 0 0 0 0 0
0 0 0 0 0 0 0 0 0 0 0 0 0 0 0 0 0 0 0 0 0 0 0 0 0 0 0 0 0 0 0 0 0 0 1 1 1 0 0 0 0 0 0 0 0 0 0 0 0
0 0 0 0 0 0 0 0 0 0 0 0 0 0 0 0 0 0 0 0 0 0 0 0 0 0 0 0 0 0 0 1 1 1 1 1 1 0 0 0 0 0 0 0 0 0 0 0 0
0 0 0 0 0 0 0 0 0 0 0 0 0 0 0 0 0 0 0 0 0 0 0 0 0 0 0 0 0 0 0 0 1 1 1 1 1 0 0 0 0 0 0 0 0 0 0 0 0
0 0 0 0 0 0 0 0 0 0 0 0 0 0 0 0 0 0 0 0 0 0 0 0 0 0 0 0 0 0 0 0 1 1 1 1 1 0 0 0 0 0 0 0 0 0 0 0 0
0 0 0 0 0 0 0 0 0 -0 -0 -0 0 0 0 0 0 0 0 0 0 0 0 0 0 0 0 0 0 0 0 0 0 0 0 0 0 0 0 0 0 0 0 0 0 0 0 0 0
0 0 0 0 0 0 0 0 0 0 0 0 0 0 0 0 0 0 0 0 0 0 0 0 0 0 0 0 0 0 0 0 0 0 0 0 0 0 0 0 0 0 0 0 0 0 0 0 0
Wind_Speed_500mb
12 16 21 11 12 8 6 9 5 11 10 4 5 6 19 20 20 7 33 28 31 28 24 24 14 12 9 10 14 18 16 17 16 13 12 14 17 21 24 25 33 31 32 28 29 29 30 31 31
9 12 12 12 11 10 11 13 9 9 13 12 9 2 2 13 15 27 27 32 31 28 25 15 13 11 11 12 15 20 20 22 16 16 19 19 18 22 28 30 31 29 30 31 32 33 32 32 33
7 6 10 7 7 7 6 8 19 20 14 10 6 4 6 10 10 36 24 36 30 26 24 16 14 12 13 15 17 19 23 24 22 28 27 28 32 33 33 32 30 25 27 30 34 33 34 34 33
2 3 9 15 6 5 6 9 21 22 10 5 1 10 10 4 25 20 39 37 30 28 18 21 18 16 19 19 16 18 27 27 29 29 29 31 34 33 30 24 25 30 26 29 31 31 32 31 30
2 5 6 11 7 5 6 8 20 14 11 11 6 9 13 13 15 34 40 35 31 28 22 24 19 20 26 21 18 21 23 28 27 27 29 29 33 33 28 24 26 25 25 26 28 29 31 31 32
15 7 9 18 11 5 5 14 18 11 11 11 7 16 16 15 29 41 35 31 28 28 25 25 23 24 26 21 19 20 19 22 22 22 23 28 25 26 26 25 25 25 24 25 26 27 28 29 30
22 8 10 15 13 9 6 16 17 10 11 8 6 15 12 23 29 43 36 34 29 26 27 25 27 26 25 20 17 18 17 19 21 22 22 22 23 24 26 24 22 26 24 24 23 23 25 27 29
7 9 5 6 10 8 11 18 2 8 10 9 5 4 12 31 37 44 37 30 29 28 25 25 26 26 25 23 18 16 17 19 21 21 23 21 20 20 21 22 20 21 20 20 20 21 23 25 27
8 10 17 14 4 10 18 16 4 2 9 7 10 3 15 38 44 46 41 34 39 39 29 25 25 26 23 19 23 20 18 20 21 24 24 21 16 17 15 16 18 18 17 17 18 19 21 22 22
21 18 20 3 15 10 20 15 12 10 12 12 14 5 25 37 49 51 47 46 32 39 33 31 33 29 26 21 20 19 20 19 18 19 20 16 15 14 13 14 15 15 14 14 16 16 16 18 14
17 21 8 7 10 12 13 17 9 12 12 10 15 21 31 38 48 48 44 39 37 35 40 34 40 33 30 27 25 23 21 20 18 17 17 17 15 14 11 10 11 11 10 10 11 13 13 12 13
16 31 10 15 13 13 15 11 10 11 1 7 3 22 36 40 52 48 45 43 42 40 43 38 39 39 35 31 29 25 23 22 20 18 16 15 14 13 12 9 7 6 6 6 6 7 9 10 11
23 15 16 14 14 10 11 9 3 15 11 9 6 21 33 37 41 41 41 40 41 44 46 46 37 44 40 36 29 27 26 25 23 21 18 16 14 13 12 10 9 7 5 5 4 4 5 7 8
21 14 19 18 17 12 10 19 5 17 14 7 7 20 27 35 38 38 43 44 45 46 47 48 43 43 44 41 37 33 30 29 26 22 20 19 18 16 13 12 11 10 8 6 5 2 1 3 4
8 19 14 19 20 11 12 30 25 36 22 18 16 19 26 31 36 46 43 46 47 49 47 49 47 42 44 45 42 39 37 32 31 28 26 24 21 18 16 15 13 13 12 9 7 6 5 3 2
20 17 17 24 25 13 14 34 26 44 35 31 23 20 27 34 41 41 40 43 46 47 56 54 53 51 48 46 43 40 39 37 32 32 31 29 26 23 22 20 19 19 16 14 12 10 8 7 7
25 20 32 21 26 13 24 20 19 18 26 33 33 30 29 32 39 42 43 46 48 51 52 58 59 59 55 50 48 46 43 39 39 37 37 35 32 30 28 27 25 21 21 18 17 14 11 8 5
28 31 29 35 21 21 27 32 24 18 12 20 32 38 34 34 38 40 44 46 47 50 51 53 59 61 60 56 53 52 49 47 46 43 41 39 37 36 35 33 33 27 23 21 20 16 12 11 12
29 30 38 20 12 10 27 35 31 33 32 36 38 38 32 36 31 36 42 47 47 49 53 58 60 63 62 64 63 61 59 56 54 53 48 44 40 38 36 32 29 29 26 24 23 19 19 18 18
22 27 27 7 9 8 26 43 37 41 43 45 45 46 47 45 34 40 46 52 58 59 63 63 62 63 67 67 64 65 61 60 57 55 52 47 44 41 38 32 33 30 27 23 23 24 22 23 21
34 33 29 20 11 18 21 41 48 37 52 49 47 51 55 58 50 45 49 58 61 67 70 69 68 62 68 70 68 65 57 55 58 62 58 55 51 49 44 41 39 38 35 31 29 29 29 29 32
30 25 8 12 9 17 5 15 27 9 13 25 37 49 59 58 61 53 53 60 67 70 72 75 75 75 72 74 75 74 75 75 72 65 62 60 53 54 49 40 41 41 40 41 40 40 37 37 39
28 24 22 15 15 19 27 16 13 30 31 25 36 40 45 50 58 62 71 65 67 68 74 77 78 79 79 74 80 83 84 80 71 65 64 61 55 50 48 47 44 48 51 48 47 47 46 43 44
25 24 13 4 8 17 30 27 20 25 28 23 26 18 24 36 43 51 57 60 69 69 72 75 79 83 81 82 84 87 89 86 78 70 66 68 65 60 59 57 51 48 54 54 48 48 47 44 47
30 34 7 4 7 16 6 18 32 15 19 11 16 17 17 19 25 31 47 56 70 69 68 74 81 86 86 85 86 87 91 90 87 82 78 76 71 71 67 62 58 48 50 51 47 48 47 46 44
40 32 12 16 15 15 4 20 9 13 15 24 33 33 28 31 21 26 30 46 58 65 68 69 78 87 89 91 92 91 90 91 90 88 85 83 78 77 67 67 61 47 41 42 45 46 49 47 42
18 20 5 9 4 3 14 22 27 29 27 29 31 35 34 22 21 24 30 29 39 52 62 69 70 80 90 96 98 96 96 96 95 91 89 85 79 76 68 68 65 55 46 47 46 44 46 44 42
26 28 9 4 12 14 20 29 25 8 14 20 23 28 23 18 14 15 24 24 29 36 45 54 63 77 83 93 98 99 96 96 97 95 95 91 87 82 69 74 69 63 53 51 47 45 48 45 41
10 26 7 11 12 11 11 18 18 22 22 27 22 4 5 3 9 34 20 25 29 32 39 52 59 63 73 84 90 98 99 97 96 97 96 92 91 89 79 75 74 71 66 55 47 42 44 50 42
30 32 27 15 16 18 15 22 7 10 13 11 4 1 11 22 21 16 23 46 52 45 44 45 51 60 64 71 83 92 94 96 98 98 95 88 90 84 79 78 80 76 68 58 51 47 53 44 43
Wind_Direction_500mb
323 333 335 307 256 252 121 123 57 120 140 63 73 337 17 28 7 53 140 140 145 152 161 152 157 161 162 159 157 159 166 169 179 174 153 132 124 123 128 110 90 94 88 84 83 85 84 83 83
313 327 321 289 266 246 106 122 168 111 93 112 109 330 223 79 59 128 143 144 152 148 146 161 148 154 147 131 134 143 141 145 135 152 154 144 139 122 111 97 98 92 89 85 87 84 82 80 79
299 320 287 289 284 313 66 165 108 111 118 130 127 1 40 64 106 140 158 146 147 151 143 150 138 143 146 123 111 139 142 132 133 118 125 123 115 111 106 106 104 93 93 88 84 80 76 75 79
346 265 243 257 265 83 38 143 135 142 124 153 137 121 92 97 138 156 149 147 159 153 152 139 137 142 139 132 125 118 128 124 121 123 125 121 118 114 109 113 118 102 91 85 86 78 74 73 80
267 213 282 248 224 101 102 127 154 161 124 144 144 109 105 124 139 146 153 146 165 136 165 143 139 137 135 134 135 126 118 124 121 124 123 123 122 122 119 109 109 115 99 88 85 74 71 71 79
220 218 231 226 191 127 116 159 164 163 134 137 152 132 123 143 146 159 145 157 143 157 149 149 142 141 132 143 140 125 119 119 123 123 119 122 121 123 118 104 106 113 104 94 84 75 71 72 79
234 219 255 253 157 175 124 165 173 170 145 146 124 146 127 148 172 159 152 162 155 163 158 155 151 148 149 147 143 136 126 122 122 122 122 122 121 119 118 110 107 110 105 94 83 76 74 76 81
250 211 219 258 199 150 144 168 260 191 118 128 171 154 165 172 173 160 157 157 162 159 157 166 160 154 161 164 159 153 142 133 128 130 129 120 113 111 116 118 114 108 102 90 80 75 74 76 79
209 238 213 203 200 129 159 177 154 205 137 164 174 99 121 181 175 164 163 168 194 159 166 184 163 156 156 168 170 163 149 135 131 128 129 113 109 116 120 117 112 112 103 93 82 76 75 80 79
211 227 236 271 167 153 167 190 155 198 173 192 180 138 150 174 179 175 178 176 190 176 174 178 175 179 165 168 166 162 155 147 143 143 129 149 134 139 126 125 122 116 107 93 82 77 81 79 82
203 230 255 152 151 133 147 163 167 226 208 211 199 177 169 177 186 188 188 191 186 194 179 180 185 181 180 176 173 171 167 166 162 158 157 154 148 143 138 137 130 121 115 94 87 74 81 88 96
204 221 256 151 140 160 164 142 177 213 111 71 37 186 181 192 195 193 194 194 190 193 196 178 191 189 192 183 180 182 177 176 177 174 166 165 165 164 161 152 148 138 131 135 110 82 81 89 92
216 190 197 172 154 170 156 181 217 239 229 240 230 185 196 198 200 198 201 199 198 198 201 190 196 195 198 192 182 193 188 189 189 185 180 178 182 179 178 180 176 180 179 169 149 113 78 85 95
195 168 177 164 177 207 238 236 199 222 191 197 223 204 208 207 206 202 205 204 206 204 206 204 194 202 200 204 200 197 197 199 202 200 198 196 195 194 196 199 199 202 202 198 197 190 128 103 102
143 187 195 187 198 228 225 251 226 243 245 258 219 202 210 213 210 212 211 209 210 207 208 209 207 209 210 206 209 207 204 207 209 210 210 211 213 214 215 221 221 222 222 223 228 232 233 228 229
199 231 215 200 196 192 184 256 240 238 235 245 244 219 209 213 216 217 214 217 212 212 211 212 210 214 215 214 214 216 216 217 218 221 222 221 222 225 225 230 230 236 235 232 232 238 245 251 254
208 220 219 208 203 200 208 268 237 249 236 249 249 245 228 220 221 217 217 216 213 217 215 214 215 216 219 217 215 220 222 220 224 227 229 229 229 232 233 234 238 243 244 242 239 235 228 235 258
191 220 230 227 178 219 228 246 252 235 230 250 252 247 241 229 227 224 219 217 215 217 212 218 219 220 220 223 221 222 225 226 226 229 231 235 236 234 235 244 247 241 247 248 242 236 229 235 247
220 212 236 216 148 250 240 256 249 250 238 243 251 252 245 236 228 223 220 217 215 216 214 215 217 221 222 222 223 224 225 227 229 231 233 233 236 239 237 244 243 244 244 245 246 234 238 250 260
235 231 225 190 136 245 276 275 267 254 251 249 248 249 251 250 235 223 214 216 219 217 216 215 218 220 224 228 230 233 233 235 235 236 235 233 238 241 243 243 239 239 238 240 233 241 248 258 264
211 216 223 231 171 229 275 272 272 250 247 247 242 246 244 244 240 232 222 223 223 223 222 218 219 222 225 227 230 233 232 234 234 231 232 233 237 237 240 237 244 244 242 241 246 246 252 261 263
206 219 228 210 265 267 65 286 292 287 245 234 236 240 244 242 238 234 230 232 229 231 227 229 226 225 226 230 228 231 231 233 232 236 237 239 239 235 237 235 237 237 237 243 246 246 245 249 258
223 170 203 224 247 286 257 274 279 245 251 247 252 245 244 244 240 233 232 232 246 238 234 231 231 230 228 224 232 235 238 240 242 240 240 239 238 238 238 236 240 240 241 239 246 248 247 251 255
142 141 129 175 266 259 250 238 265 251 255 256 239 261 262 249 244 240 238 236 239 241 238 234 233 233 232 233 236 236 241 242 238 235 239 236 236 237 236 234 236 246 245 245 246 247 249 252 257
167 161 145 162 201 248 1 235 239 291 305 252 259 244 275 261 243 244 236 231 240 240 245 242 237 237 237 236 237 238 239 242 241 243 239 242 238 235 234 232 233 240 254 242 244 247 249 250 251
190 180 174 197 208 245 120 236 250 216 276 256 237 264 274 250 259 265 250 238 247 243 247 248 244 242 240 240 240 241 240 240 242 243 243 245 244 242 240 236 234 236 241 236 243 248 249 246 244
177 202 288 100 34 301 230 253 268 243 239 247 249 261 264 266 278 271 280 269 249 253 256 256 249 247 243 242 243 242 242 241 239 240 239 242 243 244 240 236 234 229 237 235 240 251 246 242 237
183 158 121 220 202 240 250 253 254 191 250 238 239 254 266 246 307 329 318 302 287 278 270 266 261 254 248 245 244 245 245 244 244 241 239 238 240 240 237 232 233 230 235 240 234 247 236 235 233
181 179 209 185 232 230 263 245 253 234 236 238 252 181 16 16 331 327 337 330 322 309 290 268 259 255 252 248 246 247 247 244 243 241 238 237 237 239 235 229 229 229 229 231 236 243 229 225 226
188 184 180 186 192 241 277 265 202 187 205 190 5 351 336 308 310 324 338 336 331 325 321 301 274 261 252 249 245 244 243 242 241 240 238 237 237 238 233 226 224 227 226 227 235 237 220 223 238
Wind_Speed_850mb
12 16 21 11 12 8 6 9 5 11 10 4 5 6 19 20 20 7 33 28 31 28 24 24 14 12 9 10 14 18 16 17 16 13 12 14 17 21 24 25 33 31 32 28 29 29 30 31 31
9 12 12 12 11 10 11 13 9 9 13 12 9 2 2 13 15 27 27 32 31 28 25 15 13 11 11 12 15 20 20 22 16 16 19 19 18 22 28 30 31 29 30 31 32 33 32 32 33
7 6 10 7 7 7 6 8 19 20 14 10 6 4 6 10 10 36 24 36 30 26 24 16 14 12 13 15 17 19 23 24 22 28 27 28 32 33 33 32 30 25 27 30 34 33 34 34 33
2 3 9 15 6 5 6 9 21 22 10 5 1 10 10 4 25 20 39 37 30 28 18 21 18 16 19 19 16 18 27 27 29 29 29 31 34 33 30 24 25 30 26 29 31 31 32 31 30
2 5 6 11 7 5 6 8 20 14 11 11 6 9 13 13 15 34 40 35 31 28 22 24 19 20 26 21 18 21 23 28 27 27 29 29 33 33 28 24 26 25 25 26 28 29 31 31 32
15 7 9 18 11 5 5 14 18 11 11 11 7 16 16 15 29 41 35 31 28 28 25 25 23 24 26 21 19 20 19 22 22 22 23 28 25 26 26 25 25 25 24 25 26 27 28 29 30
22 8 10 15 13 9 6 16 17 10 11 8 6 15 12 23 29 43 36 34 29 26 27 25 27 26 25 20 17 18 17 19 21 22 22 22 23 24 26 24 22 26 24 24 23 23 25 27 29
7 9 5 6 10 8 11 18 2 8 10 9 5 4 12 31 37 44 37 30 29 28 25 25 26 26 25 23 18 16 17 19 21 21 23 21 20 20 21 22 20 21 20 20 20 21 23 25 27
8 10 17 14 4 10 18 16 4 2 9 7 10 3 15 38 44 46 41 34 39 39 29 25 25 26 23 19 23 20 18 20 21 24 24 21 16 17 15 16 18 18 17 17 18 19 21 22 22
21 18 20 3 15 10 20 15 12 10 12 12 14 5 25 37 49 51 47 46 32 39 33 31 33 29 26 21 20 19 20 19 18 19 20 16 15 14 13 14 15 15 14 14 16 16 16 18 14
17 21 8 7 10 12 13 17 9 12 12 10 15 21 31 38 48 48 44 39 37 35 40 34 40 33 30 27 25 23 21 20 18 17 17 17 15 14 11 10 11 11 10 10 11 13 13 12 13
16 31 10 15 13 13 15 11 10 11 1 7 3 22 36 40 52 48 45 43 42 40 43 38 39 39 35 31 29 25 23 22 20 18 16 15 14 13 12 9 7 6 6 6 6 7 9 10 11
23 15 16 14 14 10 11 9 3 15 11 9 6 21 33 37 41 41 41 40 41 44 46 46 37 44 40 36 29 27 26 25 23 21 18 16 14 13 12 10 9 7 5 5 4 4 5 7 8
21 14 19 18 17 12 10 19 5 17 14 7 7 20 27 35 38 38 43 44 45 46 47 48 43 43 44 41 37 33 30 29 26 22 20 19 18 16 13 12 11 10 8 6 5 2 1 3 4
8 19 14 19 20 11 12 30 25 36 22 18 16 19 26 31 36 46 43 46 47 49 47 49 47 42 44 45 42 39 37 32 31 28 26 24 21 18 16 15 13 13 12 9 7 6 5 3 2
20 17 17 24 25 13 14 34 26 44 35 31 23 20 27 34 41 41 40 43 46 47 56 54 53 51 48 46 43 40 39 37 32 32 31 29 26 23 22 20 19 19 16 14 12 10 8 7 7
25 20 32 21 26 13 24 20 19 18 26 33 33 30 29 32 39 42 43 46 48 51 52 58 59 59 55 50 48 46 43 39 39 37 37 35 32 30 28 27 25 21 21 18 17 14 11 8 5
28 31 29 35 21 21 27 32 24 18 12 20 32 38 34 34 38 40 44 46 47 50 51 53 59 61 60 56 53 52 49 47 46 43 41 39 37 36 35 33 33 27 23 21 20 16 12 11 12
29 30 38 20 12 10 27 35 31 33 32 36 38 38 32 36 31 36 42 47 47 49 53 58 60 63 62 64 63 61 59 56 54 53 48 44 40 38 36 32 29 29 26 24 23 19 19 18 18
22 27 27 7 9 8 26 43 37 41 43 45 45 46 47 45 34 40 46 52 58 59 63 63 62 63 67 67 64 65 61 60 57 55 52 47 44 41 38 32 33 30 27 23 23 24 22 23 21
34 33 29 20 11 18 21 41 48 37 52 49 47 51 55 58 50 45 49 58 61 67 70 69 68 62 68 70 68 65 57 55 58 62 58 55 51 49 44 41 39 38 35 31 29 29 29 29 32
30 25 8 12 9 17 5 15 27 9 13 25 37 49 59 58 61 53 53 60 67 70 72 75 75 75 72 74 75 74 75 75 72 65 62 60 53 54 49 40 41 41 40 41 40 40 37 37 39
28 24 22 15 15 19 27 16 13 30 31 25 36 40 45 50 58 62 71 65 67 68 74 77 78 79 79 74 80 83 84 80 71 65 64 61 55 50 48 47 44 48 51 48 47 47 46 43 44
25 24 13 4 8 17 30 27 20 25 28 23 26 18 24 36 43 51 57 60 69 69 72 75 79 83 81 82 84 87 89 86 78 70 66 68 65 60 59 57 51 48 54 54 48 48 47 44 47
30 34 7 4 7 16 6 18 32 15 19 11 16 17 17 19 25 31 47 56 70 69 68 74 81 86 86 85 86 87 91 90 87 82 78 76 71 71 67 62 58 48 50 51 47 48 47 46 44
40 32 12 16 15 15 4 20 9 13 15 24 33 33 28 31 21 26 30 46 58 65 68 69 78 87 89 91 92 91 90 91 90 88 85 83 78 77 67 67 61 47 41 42 45 46 49 47 42
18 20 5 9 4 3 14 22 27 29 27 29 31 35 34 22 21 24 30 29 39 52 62 69 70 80 90 96 98 96 96 96 95 91 89 85 79 76 68 68 65 55 46 47 46 44 46 44 42
26 28 9 4 12 14 20 29 25 8 14 20 23 28 23 18 14 15 24 24 29 36 45 54 63 77 83 93 98 99 96 96 97 95 95 91 87 82 69 74 69 63 53 51 47 45 48 45 41
10 26 7 11 12 11 11 18 18 22 22 27 22 4 5 3 9 34 20 25 29 32 39 52 59 63 73 84 90 98 99 97 96 97 96 92 91 89 79 75 74 71 66 55 47 42 44 50 42
30 32 27 15 16 18 15 22 7 10 13 11 4 1 11 22 21 16 23 46 52 45 44 45 51 60 64 71 83 92 94 96 98 98 95 88 90 84 79 78 80 76 68 58 51 47 53 44 43
Wind_Direction_850mb
323 333 335 307 256 252 121 123 57 120 140 63 73 337 17 28 7 53 140 140 145 152 161 152 157 161 162 159 157 159 166 169 179 174 153 132 124 123 128 110 90 94 88 84 83 85 84 83 83
313 327 321 289 266 246 106 122 168 111 93 112 109 330 223 79 59 128 143 144 152 148 146 161 148 154 147 131 134 143 141 145 135 152 154 144 139 122 111 97 98 92 89 85 87 84 82 80 79
299 320 287 289 284 313 66 165 108 111 118 130 127 1 40 64 106 140 158 146 147 151 143 150 138 143 146 123 111 139 142 132 133 118 125 123 115 111 106 106 104 93 93 88 84 80 76 75 79
346 265 243 257 265 83 38 143 135 142 124 153 137 121 92 97 138 156 149 147 159 153 152 139 137 142 139 132 125 118 128 124 121 123 125 121 118 114 109 113 118 102 91 85 86 78 74 73 80
267 213 282 248 224 101 102 127 154 161 124 144 144 109 105 124 139 146 153 146 165 136 165 143 139 137 135 134 135 126 118 124 121 124 123 123 122 122 119 109 109 115 99 88 85 74 71 71 79
220 218 231 226 191 127 116 159 164 163 134 137 152 132 123 143 146 159 145 157 143 157 149 149 142 141 132 143 140 125 119 119 123 123 119 122 121 123 118 104 106 113 104 94 84 75 71 72 79
234 219 255 253 157 175 124 165 173 170 145 146 124 146 127 148 172 159 152 162 155 163 158 155 151 148 149 147 143 136 126 122 122 122 122 122 121 119 118 110 107 110 105 94 83 76 74 76 81
250 211 219 258 199 150 144 168 260 191 118 128 171 154 165 172 173 160 157 157 162 159 157 166 160 154 161 164 159 153 142 133 128 130 129 120 113 111 116 118 114 108 102 90 80 75 74 76 79
209 238 213 203 200 129 159 177 154 205 137 164 174 99 121 181 175 164 163 168 194 159 166 184 163 156 156 168 170 163 149 135 131 128 129 113 109 116 120 117 112 112 103 93 82 76 75 80 79
211 227 236 271 167 153 167 190 155 198 173 192 180 138 150 174 179 175 178 176 190 176 174 178 175 179 165 168 166 162 155 147 143 143 129 149 134 139 126 125 122 116 107 93 82 77 81 79 82
203 230 255 152 151 133 147 163 167 226 208 211 199 177 169 177 186 188 188 191 186 194 179 180 185 181 180 176 173 171 167 166 162 158 157 154 148 143 138 137 130 121 115 94 87 74 81 88 96
204 221 256 151 140 160 164 142 177 213 111 71 37 186 181 192 195 193 194 194 190 193 196 178 191 189 192 183 180 182 177 176 177 174 166 165 165 164 161 152 148 138 131 135 110 82 81 89 92
216 190 197 172 154 170 156 181 217 239 229 240 230 185 196 198 200 198 201 199 198 198 201 190 196 195 198 192 182 193 188 189 189 185 180 178 182 179 178 180 176 180 179 169 149 113 78 85 95
195 168 177 164 177 207 238 236 199 222 191 197 223 204 208 207 206 202 205 204 206 204 206 204 194 202 200 204 200 197 197 199 202 200 198 196 195 194 196 199 199 202 202 198 197 190 128 103 102
143 187 195 187 198 228 225 251 226 243 245 258 219 202 210 213 210 212 211 209 210 207 208 209 207 209 210 206 209 207 204 207 209 210 210 211 213 214 215 221 221 222 222 223 228 232 233 228 229
199 231 215 200 196 192 184 256 240 238 235 245 244 219 209 213 216 217 214 217 212 212 211 212 210 214 215 214 214 216 216 217 218 221 222 221 222 225 225 230 230 236 235 232 232 238 245 251 254
208 220 219 208 203 200 208 268 237 249 236 249 249 245 228 220 221 217 217 216 213 217 215 214 215 216 219 217 215 220 222 220 224 227 229 229 229 232 233 234 238 243 244 242 239 235 228 235 258
191 220 230 227 178 219 228 246 252 235 230 250 252 247 241 229 227 224 219 217 215 217 212 218 219 220 220 223 221 222 225 226 226 229 231 235 236 234 235 244 247 241 247 248 242 236 229 235 247
220 212 236 216 148 250 240 256 249 250 238 243 251 252 245 236 228 223 220 217 215 216 214 215 217 221 222 222 223 224 225 227 229 231 233 233 236 239 237 244 243 244 244 245 246 234 238 250 260
235 231 225 190 136 245 276 275 267 254 251 249 248 249 251 250 235 223 214 216 219 217 216 215 218 220 224 228 230 233 233 235 235 236 235 233 238 241 243 243 239 239 238 240 233 241 248 258 264
211 216 223 231 171 229 275 272 272 250 247 247 242 246 244 244 240 232 222 223 223 223 222 218 219 222 225 227 230 233 232 234 234 231 232 233 237 237 240 237 244 244 242 241 246 246 252 261 263
206 219 228 210 265 267 65 286 292 287 245 234 236 240 244 242 238 234 230 232 229 231 227 229 226 225 226 230 228 231 231 233 232 236 237 239 239 235 237 235 237 237 237 243 246 246 245 249 258
223 170 203 224 247 286 257 274 279 245 251 247 252 245 244 244 240 233 232 232 246 238 234 231 231 230 228 224 232 235 238 240 242 240 240 239 238 238 238 236 240 240 241 239 246 248 247 251 255
142 141 129 175 266 259 250 238 265 251 255 256 239 261 262 249 244 240 238 236 239 241 238 234 233 233 232 233 236 236 241 242 238 235 239 236 236 237 236 234 236 246 245 245 246 247 249 252 257
167 161 145 162 201 248 1 235 239 291 305 252 259 244 275 261 243 244 236 231 240 240 245 242 237 237 237 236 237 238 239 242 241 243 239 242 238 235 234 232 233 240 254 242 244 247 249 250 251
190 180 174 197 208 245 120 236 250 216 276 256 237 264 274 250 259 265 250 238 247 243 247 248 244 242 240 240 240 241 240 240 242 243 243 245 244 242 240 236 234 236 241 236 243 248 249 246 244
177 202 288 100 34 301 230 253 268 243 239 247 249 261 264 266 278 271 280 269 249 253 256 256 249 247 243 242 243 242 242 241 239 240 239 242 243 244 240 236 234 229 237 235 240 251 246 242 237
183 158 121 220 202 240 250 253 254 191 250 238 239 254 266 246 307 329 318 302 287 278 270 266 261 254 248 245 244 245 245 244 244 241 239 238 240 240 237 232 233 230 235 240 234 247 236 235 233
181 179 209 185 232 230 263 245 253 234 236 238 252 181 16 16 331 327 337 330 322 309 290 268 259 255 252 248 246 247 247 244 243 241 238 237 237 239 235 229 229 229 229 231 236 243 229 225 226
188 184 180 186 192 241 277 265 202 187 205 190 5 351 336 308 310 324 338 336 331 325 321 301 274 261 252 249 245 244 243 242 241 240 238 237 237 238 233 226 224 227 226 227 235 237 220 223 238